This is the latest recevied weather packets stored in our database for station/object EA1GGY-1. If no packets are shown the sender has not sent any weather packets the latest 10 day(s).
| Time | Temp. | Humidity | Pressure | Rain* | Wind** | Luminosity | Snow |
|---|---|---|---|---|---|---|---|
| 1787847944 | 12.22° C | 76% | 1008.4 hPa | - | - | - | - |
| 1787847343 | 12.78° C | 67% | 1007.9 hPa | - | - | - | - |
| 1787846742 | 13.33° C | 60% | 1007.8 hPa | - | - | - | - |
| 1787846142 | 13.89° C | 60% | 1007.7 hPa | - | - | - | - |
| 1787845541 | 13.89° C | 59% | 1007.7 hPa | - | - | - | - |
| 1787844940 | 14.44° C | 60% | 1007.8 hPa | - | - | - | - |
| 1787844339 | 13.89° C | 60% | 1007.8 hPa | - | - | - | - |
| 1787843738 | 13.89° C | 62% | 1007.7 hPa | - | - | - | - |
| 1787843138 | 13.89° C | 63% | 1007.8 hPa | - | - | - | - |
| 1787842536 | 13.89° C | 66% | 1007.8 hPa | - | - | - | - |
| 1787841935 | 13.33° C | 66% | 1007.9 hPa | - | - | - | - |
| 1787841334 | 13.89° C | 67% | 1007.5 hPa | - | - | - | - |
| 1787840733 | 14.44° C | 67% | 1007.5 hPa | - | - | - | - |
| 1787840133 | 14.44° C | 68% | 1007.6 hPa | - | - | - | - |
| 1787839532 | 13.33° C | 69% | 1007.7 hPa | - | - | - | - |
| 1787838931 | 12.78° C | 70% | 1007.8 hPa | - | - | - | - |
| 1787838330 | 13.33° C | 68% | 1007.8 hPa | - | - | - | - |
| 1787837729 | 13.33° C | 67% | 1007.6 hPa | - | - | - | - |
| 1787837129 | 13.33° C | 72% | 1007.5 hPa | - | - | - | - |
| 1787836528 | 12.78° C | 75% | 1007.3 hPa | - | - | - | - |
| 1787835927 | 12.22° C | 73% | 1007.2 hPa | - | - | - | - |
| 1787835326 | 11.67° C | 71% | 1006.8 hPa | - | - | - | - |
| 1787834726 | 11.67° C | 71% | 1008 hPa | - | - | - | - |
| 1787834125 | 12.22° C | 77% | 1007.8 hPa | - | - | - | - |
| 1787833524 | 11.67° C | 81% | 1007.3 hPa | - | - | - | - |
* Rain since midnight (hover to see other rain measurements)
** Current wind speed in m/s (hover to see current wind gust speed)